ANE55YR LEVC-LEPA

Flight info

Callsign ANE55YR
Flight time 0h 42m
Altitude 18000
Route ORVUS M871 GODOX
Aircraft AT76/M-SDFGIRY/S

Departure

Time 2026-05-07 12:05
Airport Valencia Airport (LEVC)

Arrival

Time 2026-05-07 12:47
Airport Palma de Mallorca Airport (LEPA)
Time Latitude Longitude Altitude Speed Heading
2026-05-07 11:10 39.49329 -0.47543 205 ft 0 kts 116°
2026-05-07 12:02 39.49329 -0.47542 205 ft 0 kts 116°
2026-05-07 12:02 39.49325 -0.47541 205 ft 1 kts 156°
2026-05-07 12:02 39.49327 -0.47567 212 ft 11 kts 289°
2026-05-07 12:03 39.49278 -0.47643 214 ft 16 kts 205°
2026-05-07 12:03 39.49149 -0.47723 206 ft 22 kts 205°
2026-05-07 12:03 39.49040 -0.47804 210 ft 17 kts 237°
2026-05-07 12:03 39.49053 -0.47955 213 ft 18 kts 298°
2026-05-07 12:04 39.49052 -0.48045 208 ft 10 kts 214°
2026-05-07 12:04 39.48987 -0.48106 206 ft 12 kts 220°
2026-05-07 12:04 39.48926 -0.48143 206 ft 8 kts 132°
2026-05-07 12:04 39.48853 -0.47951 210 ft 54 kts 112°
2026-05-07 12:05 39.48598 -0.47286 213 ft 108 kts 116°
2026-05-07 12:05 39.48232 -0.46360 631 ft 116 kts 112°
2026-05-07 12:05 39.47852 -0.45441 1133 ft 119 kts 125°
2026-05-07 12:05 39.47230 -0.44751 1637 ft 118 kts 140°
2026-05-07 12:06 39.46571 -0.44052 1887 ft 124 kts 131°
2026-05-07 12:06 39.46002 -0.43146 2107 ft 133 kts 122°
2026-05-07 12:06 39.45440 -0.42037 2081 ft 162 kts 120°
2026-05-07 12:06 39.44791 -0.40777 2316 ft 171 kts 122°
2026-05-07 12:07 39.44107 -0.39524 2729 ft 170 kts 123°
2026-05-07 12:07 39.43434 -0.38282 3098 ft 171 kts 123°
2026-05-07 12:07 39.42751 -0.37024 3505 ft 171 kts 123°
2026-05-07 12:07 39.42075 -0.35764 3937 ft 170 kts 123°
2026-05-07 12:08 39.41397 -0.34500 4386 ft 172 kts 123°
2026-05-07 12:08 39.40713 -0.33225 4960 ft 171 kts 123°
2026-05-07 12:08 39.40034 -0.31939 5593 ft 174 kts 122°
2026-05-07 12:08 39.39672 -0.30467 6223 ft 175 kts 92°
2026-05-07 12:09 39.39625 -0.28897 6978 ft 175 kts 94°
2026-05-07 12:09 39.39559 -0.27312 7643 ft 177 kts 95°
2026-05-07 12:09 39.39477 -0.25708 8191 ft 182 kts 95°
2026-05-07 12:09 39.39379 -0.24101 8723 ft 182 kts 96°
2026-05-07 12:10 39.39259 -0.22447 9149 ft 186 kts 97°
2026-05-07 12:10 39.39129 -0.20771 9584 ft 188 kts 97°
2026-05-07 12:10 39.38990 -0.19081 9970 ft 188 kts 98°
2026-05-07 12:10 39.38849 -0.17396 10264 ft 190 kts 98°
2026-05-07 12:11 39.38700 -0.15686 10524 ft 192 kts 98°
2026-05-07 12:11 39.38544 -0.13957 10759 ft 194 kts 98°
2026-05-07 12:11 39.38392 -0.12222 11045 ft 194 kts 98°
2026-05-07 12:11 39.38234 -0.10484 11318 ft 196 kts 99°
2026-05-07 12:12 39.38078 -0.08736 11591 ft 197 kts 99°
2026-05-07 12:12 39.37911 -0.06994 11853 ft 198 kts 99°
2026-05-07 12:12 39.37731 -0.05215 12090 ft 201 kts 100°
2026-05-07 12:12 39.37555 -0.03424 12363 ft 201 kts 99°
2026-05-07 12:13 39.37382 -0.01625 12631 ft 202 kts 100°
2026-05-07 12:13 39.37207 0.00184 12870 ft 204 kts 99°
2026-05-07 12:13 39.37024 0.02011 13119 ft 206 kts 100°
2026-05-07 12:13 39.36838 0.03852 13379 ft 207 kts 100°
2026-05-07 12:14 39.36657 0.05703 13638 ft 208 kts 99°
2026-05-07 12:14 39.36479 0.07564 13871 ft 209 kts 100°
2026-05-07 12:14 39.36299 0.09438 14093 ft 210 kts 99°
2026-05-07 12:14 39.36121 0.11319 14298 ft 212 kts 99°
2026-05-07 12:15 39.35944 0.13206 14506 ft 212 kts 100°
2026-05-07 12:15 39.35764 0.15103 14708 ft 213 kts 100°
2026-05-07 12:15 39.35585 0.17011 14906 ft 214 kts 100°
2026-05-07 12:15 39.35405 0.18922 15110 ft 215 kts 100°
2026-05-07 12:16 39.35224 0.20843 15319 ft 216 kts 100°
2026-05-07 12:16 39.35044 0.22743 15532 ft 216 kts 100°
2026-05-07 12:16 39.34861 0.24671 15737 ft 216 kts 101°
2026-05-07 12:16 39.34678 0.26599 15930 ft 217 kts 101°
2026-05-07 12:17 39.34495 0.28539 16114 ft 218 kts 101°
2026-05-07 12:17 39.34310 0.30484 16296 ft 218 kts 101°
2026-05-07 12:17 39.34123 0.32434 16472 ft 219 kts 101°
2026-05-07 12:17 39.33935 0.34392 16642 ft 220 kts 101°
2026-05-07 12:18 39.33748 0.36354 16812 ft 221 kts 101°
2026-05-07 12:18 39.33559 0.38325 16968 ft 221 kts 101°
2026-05-07 12:18 39.33371 0.40310 17141 ft 223 kts 101°
2026-05-07 12:18 39.33179 0.42297 17320 ft 224 kts 102°
2026-05-07 12:19 39.33101 0.44315 17492 ft 227 kts 92°
2026-05-07 12:19 39.33205 0.46360 17650 ft 229 kts 89°
2026-05-07 12:19 39.33352 0.48413 17794 ft 230 kts 89°
2026-05-07 12:19 39.33495 0.50487 17885 ft 234 kts 90°
2026-05-07 12:20 39.33607 0.52576 17923 ft 238 kts 91°
2026-05-07 12:20 39.33709 0.54735 17939 ft 243 kts 91°
2026-05-07 12:20 39.33809 0.56931 17948 ft 247 kts 91°
2026-05-07 12:20 39.33911 0.59169 17952 ft 251 kts 91°
2026-05-07 12:21 39.34013 0.61434 17956 ft 254 kts 91°
2026-05-07 12:21 39.34115 0.63721 17955 ft 256 kts 91°
2026-05-07 12:21 39.34217 0.66031 17954 ft 258 kts 91°
2026-05-07 12:21 39.34320 0.68358 17954 ft 260 kts 91°
2026-05-07 12:22 39.34422 0.70695 17958 ft 261 kts 91°
2026-05-07 12:22 39.34524 0.73045 17956 ft 263 kts 91°
2026-05-07 12:22 39.34628 0.75407 17953 ft 263 kts 91°
2026-05-07 12:22 39.34728 0.77771 17947 ft 264 kts 91°
2026-05-07 12:23 39.34829 0.80138 17951 ft 263 kts 90°
2026-05-07 12:23 39.34931 0.82472 17961 ft 263 kts 91°
2026-05-07 12:23 39.35035 0.84830 17957 ft 262 kts 91°
2026-05-07 12:23 39.35135 0.87177 17955 ft 261 kts 91°
2026-05-07 12:24 39.35233 0.89512 17954 ft 260 kts 91°
2026-05-07 12:24 39.35332 0.91843 17951 ft 259 kts 91°
2026-05-07 12:24 39.35429 0.94167 17958 ft 259 kts 91°
2026-05-07 12:24 39.35526 0.96490 17950 ft 258 kts 91°
2026-05-07 12:25 39.35623 0.98816 17953 ft 258 kts 91°
2026-05-07 12:25 39.35717 1.01132 17954 ft 258 kts 91°
2026-05-07 12:25 39.35811 1.03417 17954 ft 258 kts 91°
2026-05-07 12:25 39.35905 1.05731 17956 ft 258 kts 91°
2026-05-07 12:26 39.35999 1.08044 17944 ft 257 kts 91°
2026-05-07 12:26 39.36092 1.10350 17945 ft 257 kts 91°
2026-05-07 12:26 39.36185 1.12657 17945 ft 257 kts 91°
2026-05-07 12:26 39.36278 1.14965 17936 ft 257 kts 91°
2026-05-07 12:27 39.36365 1.17276 17942 ft 258 kts 91°
2026-05-07 12:27 39.36456 1.19596 17947 ft 259 kts 91°
2026-05-07 12:27 39.36550 1.21918 17948 ft 259 kts 91°
2026-05-07 12:27 39.36639 1.24224 17947 ft 260 kts 91°
2026-05-07 12:28 39.36731 1.26560 17947 ft 260 kts 91°
2026-05-07 12:28 39.36823 1.28904 17947 ft 261 kts 91°
2026-05-07 12:28 39.36913 1.31248 17946 ft 261 kts 91°
2026-05-07 12:28 39.36973 1.32800 17946 ft 261 kts 91°
2026-05-07 12:29 39.37062 1.35146 17947 ft 261 kts 91°
2026-05-07 12:29 39.37153 1.37493 17947 ft 262 kts 91°
2026-05-07 12:29 39.37244 1.39846 17947 ft 262 kts 91°
2026-05-07 12:29 39.37354 1.42195 17946 ft 263 kts 88°
2026-05-07 12:30 39.37622 1.44535 17946 ft 264 kts 83°
2026-05-07 12:30 39.37972 1.46868 17947 ft 264 kts 82°
2026-05-07 12:30 39.38329 1.49200 17947 ft 264 kts 82°
2026-05-07 12:30 39.38665 1.51537 17947 ft 264 kts 84°
2026-05-07 12:31 39.38976 1.53872 17939 ft 264 kts 83°
2026-05-07 12:31 39.39284 1.56217 17943 ft 264 kts 83°
2026-05-07 12:31 39.39591 1.58529 17947 ft 265 kts 83°
2026-05-07 12:31 39.39898 1.60881 17946 ft 265 kts 83°
2026-05-07 12:32 39.40206 1.63234 17946 ft 265 kts 83°
2026-05-07 12:32 39.40515 1.65589 17946 ft 265 kts 84°
2026-05-07 12:32 39.40820 1.67939 17939 ft 265 kts 83°
2026-05-07 12:32 39.41128 1.70323 17565 ft 279 kts 83°
2026-05-07 12:33 39.41796 1.75487 16682 ft 301 kts 83°
2026-05-07 12:33 39.42148 1.78186 16231 ft 308 kts 83°
2026-05-07 12:33 39.42509 1.80952 15776 ft 314 kts 83°
2026-05-07 12:34 39.42872 1.83740 15445 ft 312 kts 83°
2026-05-07 12:34 39.43218 1.86481 15010 ft 304 kts 83°
2026-05-07 12:34 39.43559 1.89143 14584 ft 296 kts 83°
2026-05-07 12:34 39.43898 1.91739 14157 ft 289 kts 83°
2026-05-07 12:35 39.44223 1.94283 13764 ft 283 kts 83°
2026-05-07 12:35 39.44542 1.96777 13329 ft 278 kts 83°
2026-05-07 12:35 39.44857 1.99226 12903 ft 274 kts 83°
2026-05-07 12:35 39.45168 2.01643 12490 ft 270 kts 83°
2026-05-07 12:36 39.45522 2.04008 12091 ft 266 kts 77°
2026-05-07 12:36 39.46097 2.06269 11702 ft 263 kts 72°
2026-05-07 12:36 39.46744 2.08479 11320 ft 261 kts 71°
2026-05-07 12:36 39.47378 2.10662 10952 ft 258 kts 72°
2026-05-07 12:37 39.47966 2.12813 10592 ft 256 kts 73°
2026-05-07 12:37 39.48539 2.14979 10232 ft 253 kts 73°
2026-05-07 12:37 39.49100 2.17130 9881 ft 251 kts 73°
2026-05-07 12:37 39.49660 2.19261 9500 ft 249 kts 72°
2026-05-07 12:38 39.50217 2.21371 9121 ft 247 kts 73°
2026-05-07 12:38 39.50766 2.23469 8752 ft 245 kts 72°
2026-05-07 12:38 39.51312 2.25553 8389 ft 243 kts 72°
2026-05-07 12:38 39.51854 2.27622 8035 ft 241 kts 72°
2026-05-07 12:39 39.52389 2.29667 7676 ft 239 kts 73°
2026-05-07 12:39 39.52922 2.31704 7335 ft 237 kts 72°
2026-05-07 12:39 39.53447 2.33719 6999 ft 235 kts 72°
2026-05-07 12:39 39.53972 2.35715 6673 ft 233 kts 72°
2026-05-07 12:40 39.54484 2.37703 6344 ft 230 kts 73°
2026-05-07 12:40 39.54533 2.39717 6010 ft 226 kts 107°
2026-05-07 12:40 39.53853 2.41528 5682 ft 218 kts 121°
2026-05-07 12:40 39.53026 2.43012 5382 ft 196 kts 126°
2026-05-07 12:41 39.52204 2.44341 5103 ft 188 kts 126°
2026-05-07 12:41 39.51377 2.45686 4817 ft 192 kts 127°
2026-05-07 12:41 39.50561 2.46998 4549 ft 181 kts 127°
2026-05-07 12:41 39.49788 2.48247 4279 ft 176 kts 126°
2026-05-07 12:42 39.49022 2.49511 4014 ft 181 kts 126°
2026-05-07 12:42 39.48242 2.50791 3756 ft 184 kts 126°
2026-05-07 12:42 39.47461 2.52076 3495 ft 178 kts 125°
2026-05-07 12:42 39.46844 2.53374 3223 ft 164 kts 99°
2026-05-07 12:43 39.47044 2.54770 2994 ft 159 kts 69°
2026-05-07 12:43 39.47527 2.56061 2762 ft 160 kts 63°
2026-05-07 12:43 39.48094 2.57310 2512 ft 161 kts 60°
2026-05-07 12:43 39.48693 2.58539 2273 ft 161 kts 59°
2026-05-07 12:44 39.49299 2.59758 2039 ft 161 kts 59°
2026-05-07 12:44 39.49901 2.60978 1839 ft 160 kts 59°
2026-05-07 12:44 39.50490 2.62173 1700 ft 157 kts 59°
2026-05-07 12:44 39.51070 2.63376 1479 ft 157 kts 59°
2026-05-07 12:45 39.51616 2.64525 1259 ft 143 kts 60°
2026-05-07 12:45 39.52123 2.65566 1072 ft 128 kts 60°
2026-05-07 12:45 39.52543 2.66448 893 ft 105 kts 60°
2026-05-07 12:45 39.52922 2.67226 734 ft 102 kts 60°
2026-05-07 12:46 39.53299 2.68008 624 ft 101 kts 60°
2026-05-07 12:46 39.53661 2.68773 464 ft 98 kts 60°
2026-05-07 12:46 39.54014 2.69531 365 ft 100 kts 60°
2026-05-07 12:46 39.54367 2.70320 227 ft 101 kts 62°
2026-05-07 12:47 39.54725 2.71088 82 ft 99 kts 60°
2026-05-07 12:47 39.55055 2.71785 35 ft 67 kts 58°
2026-05-07 12:47 39.55209 2.72111 35 ft 33 kts 57°
2026-05-07 12:47 39.55290 2.72288 35 ft 14 kts 75°
2026-05-07 12:48 39.55249 2.72358 35 ft 9 kts 153°
2026-05-07 12:48 39.55196 2.72401 35 ft 9 kts 148°
2026-05-07 12:48 39.55164 2.72447 35 ft 4 kts 94°
2026-05-07 12:48 39.55190 2.72517 35 ft 15 kts 58°
2026-05-07 12:49 39.55249 2.72644 35 ft 14 kts 59°
2026-05-07 12:49 39.55290 2.72731 35 ft 9 kts 57°
2026-05-07 12:49 39.55331 2.72815 35 ft 13 kts 59°
2026-05-07 12:49 39.55390 2.72943 35 ft 21 kts 57°
2026-05-07 12:50 39.55470 2.73109 35 ft 19 kts 58°
2026-05-07 12:50 39.55537 2.73250 35 ft 18 kts 58°
2026-05-07 12:50 39.55604 2.73392 35 ft 17 kts 58°
2026-05-07 12:50 39.55622 2.73488 35 ft 10 kts 114°
2026-05-07 12:51 39.55560 2.73548 35 ft 13 kts 148°
2026-05-07 12:51 39.55467 2.73622 35 ft 18 kts 148°
2026-05-07 12:51 39.55351 2.73713 35 ft 21 kts 149°
2026-05-07 12:51 39.55228 2.73810 35 ft 18 kts 148°
2026-05-07 12:52 39.55168 2.73792 35 ft 11 kts 243°
2026-05-07 12:52 39.55174 2.73684 35 ft 14 kts 244°
2026-05-07 12:52 39.55107 2.73544 35 ft 20 kts 239°
2026-05-07 12:52 39.55043 2.73406 35 ft 15 kts 242°
2026-05-07 12:53 39.55035 2.73293 35 ft 4 kts 269°
2026-05-07 12:53 39.55008 2.73279 35 ft 5 kts 184°
2026-05-07 12:53 39.54996 2.73278 35 ft 0 kts 184°